User: anonymous   Login
Location: Fort Wayne
(41.1310°N, 85.1290°W)
Time: 00:25:28
(UTC-05:00)
Language:

Meteor 2-9 Rocket - Orbit

View from above orbital plane
View from above orbital plane
View from above satellite
View from above satellite

Ground track
Ground track

The orbit data is extracted from the following two-line orbital elements,

1 13719U 82116B   14353.91813003  .00000034  00000-0  10668-4 0  5820
2 13719 081.2532 172.0347 0072602 069.7188 089.4730 14.14507925651678
Epoch (UTC): 19 December 2014 22:02:06
Eccentricity: 0.0072602
inclination: 81.2532°
perigee height: 791 km
apogee height: 896 km
right ascension of ascending node: 172.0347°
argument of perigee: 69.7188°
revolutions per day: 14.14507925
mean anomaly at epoch: 89.4730°
orbit number at epoch: 65167

The dashed part of the orbit path shows where the satellite is in the earth's shadow,  

DLR